Palermo, Italy

4:56 PM CET on December 15, 2017 (GMT +0100)
Punta Raisi

Weather History for LICJ - August, 2017

Change the Weather History Date:

Sunday, August 13, 2017

  Actual Average Record
Temperature  
Mean Temperature 80 °F -  
Max Temperature 82 °F 82 °F 96 °F (2012)
Min Temperature 77 °F 73 °F 69 °F (2007)
Cooling Degree Days 14    
Growing Degree Days 30 (Base 50)    
Moisture  
Dew Point 62 °F    
Average Humidity 55    
Maximum Humidity 61    
Minimum Humidity 43    
Precipitation  
Precipitation 0.00 in 0.03 in - ()
Sea Level Pressure  
Sea Level Pressure 30.03 in    
Wind  
Wind Speed 9 mph ()    
Max Wind Speed 16 mph    
Max Gust Speed -    
Visibility 7.5 miles    
Events      
Averages and records for this station are not official NWS values.
T = Trace of Precipitation, MM = Missing Value Source: Averaged Metar Reports

Daily Weather History Graph

Daily Weather History Graph

Search for Another Location

Airport or City:

Trip Planner

Search our weather history database for the weather conditions in past years. The results will help you decide how hot, cold, wet, or windy it might be!

Date:

Astronomy

Aug. 13, 2017 Rise Set
Actual Time 6:20 AM CEST 8:03 PM CEST
Civil Twilight 5:52 AM CEST 8:31 PM CEST
Nautical Twilight 5:18 AM CEST 9:05 PM CEST
Astronomical Twilight 4:41 AM CEST 9:42 PM CEST
Moon 11:32 PM CEST (8/13) 11:56 AM CEST (8/13)
Length of Visible Light 14h 39m
Length of Day
13h 42m
Waning Gibbous, 68% of the Moon is Illuminated
Aug 13
Waning Gibbous
Aug 15
Last Quarter
Aug 21
New
Aug 29
First Quarter
Sep 6
Full

Hourly Weather History & Observations

Time (CEST) Temp. Heat Index Dew Point Humidity Pressure Visibility Wind Dir Wind Speed Gust Speed Precip Events Conditions
12:20 AM 77.0 °F - 59.0 °F 54% 30.04 in - NW 10.4 mph - N/A   Clear
12:50 AM 77.0 °F - 59.0 °F 54% 30.04 in - NW 6.9 mph - N/A   Clear
1:20 AM 78.8 °F - 60.8 °F 54% 30.04 in - WNW 9.2 mph - N/A   Clear
1:50 AM 77.0 °F - 57.2 °F 50% 30.01 in - NW 9.2 mph - N/A   Clear
2:00 AM 78 °F - 59 °F 43% 30.03 in 6 mi WNW 9.2 mph - -  
2:20 AM 77.0 °F - 59.0 °F 54% 30.01 in - WNW 6.9 mph - N/A   Clear
2:50 AM 77.0 °F - 59.0 °F 54% 30.01 in - WNW 9.2 mph - N/A   Clear
3:20 AM 77.0 °F - 57.2 °F 50% 30.01 in - NW 10.4 mph - N/A   Clear
3:50 AM 77.0 °F - 60.8 °F 57% 30.01 in - NW 10.4 mph - N/A   Clear
4:20 AM 77.0 °F - 59.0 °F 54% 30.01 in - NNW 10.4 mph - N/A   Clear
4:50 AM 77.0 °F - 60.8 °F 57% 30.01 in - NNW 12.7 mph - N/A   Clear
5:00 AM 78 °F - 61 °F 46% 30.01 in 6 mi NNW 12.7 mph - -  
5:20 AM 77.0 °F - 60.8 °F 57% 29.98 in - North 13.8 mph - N/A   Clear
5:50 AM 77.0 °F - 60.8 °F 57% 30.01 in - North 12.7 mph - N/A   Clear
6:20 AM 77.0 °F - 60.8 °F 57% 29.98 in 6.2 mi NNW 16.1 mph - N/A   Scattered Clouds
6:50 AM 77.0 °F - 62.6 °F 61% 30.01 in 6.2 mi North 12.7 mph - N/A   Scattered Clouds
7:20 AM 77.0 °F - 62.6 °F 61% 30.01 in 6.2 mi North 12.7 mph - N/A   Partly Cloudy
7:50 AM 78.8 °F - 62.6 °F 57% 30.01 in 6.2 mi North 13.8 mph - N/A   Partly Cloudy
8:00 AM 78 °F - 61 °F 46% 30.02 in - North 11.5 mph - -  
8:20 AM 78.8 °F - 62.6 °F 57% 30.01 in 6.2 mi North 12.7 mph - N/A   Partly Cloudy
8:50 AM 78.8 °F - 60.8 °F 54% 30.01 in 6.2 mi North 15.0 mph - N/A   Partly Cloudy
9:20 AM 78.8 °F - 62.6 °F 57% 30.01 in 6.2 mi North 13.8 mph - N/A   Partly Cloudy
9:50 AM 78.8 °F - 62.6 °F 57% 30.04 in 6.2 mi North 13.8 mph - N/A   Partly Cloudy
10:50 AM 80.6 °F 82.3 °F 64.4 °F 58% 30.04 in 6.2 mi North 12.7 mph - N/A   Partly Cloudy
11:00 AM 79 °F - 64 °F 51% 30.05 in 19 mi North 11.5 mph - -  
11:20 AM 78.8 °F - 62.6 °F 57% 30.04 in 6.2 mi North 12.7 mph - N/A   Partly Cloudy
11:50 AM 80.6 °F 82.3 °F 64.4 °F 58% 30.04 in 6.2 mi North 11.5 mph - N/A   Partly Cloudy
12:20 PM 80.6 °F 81.8 °F 62.6 °F 54% 30.04 in 6.2 mi North 10.4 mph - N/A   Partly Cloudy
12:50 PM 80.6 °F 81.8 °F 62.6 °F 54% 30.04 in 6.2 mi North 9.2 mph - N/A   Partly Cloudy
1:20 PM 82.4 °F 83.9 °F 64.4 °F 54% 30.04 in 6.2 mi NNW 9.2 mph - N/A   Partly Cloudy
1:50 PM 82.4 °F 83.9 °F 64.4 °F 54% 30.06 in 6.2 mi NNW 9.2 mph - N/A   Partly Cloudy
2:00 PM 81 °F - 63 °F 45% 30.07 in - NNW 8.1 mph - -  
2:20 PM 80.6 °F 82.3 °F 64.4 °F 58% 30.06 in 6.2 mi NNW 8.1 mph - N/A   Partly Cloudy
2:50 PM 80.6 °F 82.3 °F 64.4 °F 58% 30.04 in 6.2 mi NNW 9.2 mph - N/A   Partly Cloudy
3:20 PM 80.6 °F 82.3 °F 64.4 °F 58% 30.04 in 6.2 mi NNW 10.4 mph - N/A   Scattered Clouds
3:50 PM 80.6 °F 82.3 °F 64.4 °F 58% 30.04 in 6.2 mi North 10.4 mph - N/A   Scattered Clouds
4:20 PM 80.6 °F 82.3 °F 64.4 °F 58% 30.04 in 6.2 mi NNW 9.2 mph - N/A   Scattered Clouds
4:50 PM 80.6 °F 82.3 °F 64.4 °F 58% 30.04 in 6.2 mi NNW 9.2 mph - N/A   Scattered Clouds
5:00 PM 80 °F - 63 °F 46% 30.05 in 19 mi NNW 9.2 mph - -  
5:20 PM 80.6 °F 82.3 °F 64.4 °F 58% 30.04 in 6.2 mi NNW 9.2 mph - N/A   Scattered Clouds
6:20 PM 80.6 °F 82.3 °F 64.4 °F 58% 30.01 in 6.2 mi North 11.5 mph - N/A   Scattered Clouds
6:50 PM 80.6 °F 82.3 °F 64.4 °F 58% 30.04 in 6.2 mi North 10.4 mph - N/A   Scattered Clouds
7:20 PM 80.6 °F 82.3 °F 64.4 °F 58% 30.04 in 6.2 mi North 9.2 mph - N/A   Scattered Clouds
7:50 PM 78.8 °F - 64.4 °F 61% 30.04 in 6.2 mi North 8.1 mph - N/A   Scattered Clouds
8:00 PM 79 °F - 64 °F 51% 30.04 in 19 mi North 8.1 mph - -  
8:20 PM 78.8 °F - 64.4 °F 61% 30.04 in 6.2 mi North 8.1 mph - N/A   Scattered Clouds
8:50 PM 78.8 °F - 64.4 °F 61% 30.04 in 6.2 mi North 8.1 mph - N/A   Scattered Clouds
9:20 PM 78.8 °F - 64.4 °F 61% 30.04 in 6.2 mi North 5.8 mph - N/A   Scattered Clouds
9:50 PM 78.8 °F - 62.6 °F 57% 30.04 in 6.2 mi North 5.8 mph - N/A   Scattered Clouds
10:50 PM 78.8 °F - 64.4 °F 61% 30.06 in 6.2 mi North 4.6 mph - N/A   Scattered Clouds
11:00 PM 78 °F - 62 °F 49% 30.07 in 19 mi North 3.5 mph - -  
11:20 PM 78.8 °F - 62.6 °F 57% 30.06 in 6.2 mi NNW 4.6 mph - N/A   Partly Cloudy
11:50 PM 78.8 °F - 64.4 °F 61% 30.06 in 6.2 mi North 4.6 mph - N/A   Partly Cloudy